Simultaneous Nadir Overpasses (SNOs) Predictions

Prediction of SNOs between AQUA and NPP Satellite Orbit:

Table of predicted SNOs for the next 14.0 days since TLE Epoch: 9/6/2019
Index Date (AQUA) Time (AQUA) Lat,Lon (AQUA) SZA (AQUA ) Date (NPP) Time (NPP) Lat,Lon (NPP) SZA (NPP ) Distance(km) Time Diff (sec)
1 09/08/2019 21:48:46 75.17, 89.48 92.60 09/08/2019 21:48:26 75.18, 89.53 92.60 1.33 20
2 09/08/2019 22:37:54 -76.12,-100.13 88.46 09/08/2019 22:38:52 -76.11,-100.17 88.50 1.34 58
3 09/11/2019 13:16:09 -74.09, 35.04 85.30 09/11/2019 13:14:59 -74.09, 35.03 85.23 0.12 70
4 09/11/2019 14:05:03 75.70,-153.17 92.95 09/11/2019 14:05:09 75.70,-153.08 92.92 2.69 6
5 09/14/2019 05:32:26 -74.68, 152.32 84.99 09/14/2019 05:31:42 -74.68, 152.35 84.96 0.98 44
6 09/14/2019 06:21:30 75.76, -37.09 93.83 09/14/2019 06:22:03 75.76, -37.13 93.81 1.33 33
7 09/16/2019 21:48:43 -75.25, -90.30 84.67 09/16/2019 21:48:25 -75.26, -90.23 84.67 2.48 18
8 09/16/2019 22:37:48 76.27, 80.34 94.22 09/16/2019 22:38:47 76.27, 80.38 94.16 1.03 59
9 09/19/2019 13:16:10 73.90,-145.38 97.74 09/19/2019 13:15:02 73.90,-145.43 97.82 1.74 68
10 09/19/2019 14:05:09 -75.36, 25.89 83.83 09/19/2019 14:05:18 -75.36, 25.85 83.83 1.35 9




NCC Satellite Simultaneous Nadir Overpasses (SNOs) Prediction Service
